London, United Kingdom

4:35 PM BST on September 18, 2018 (GMT +0100)
Heathrow

Weather History for EGLL - January, 2018

Change the Weather History Date:

Sunday, January 14, 2018

  Actual Average Record
Temperature  
Mean Temperature 41 °F -  
Max Temperature 43 °F 45 °F 53 °F (2011)
Min Temperature 39 °F 35 °F 28 °F (2012)
Degree Days  
Heating Degree Days 24    
Moisture  
Dew Point 33 °F    
Average Humidity 72    
Maximum Humidity 81    
Minimum Humidity 57    
Precipitation  
Precipitation 0.00 in - - ()
Sea Level Pressure  
Sea Level Pressure 30.06 in    
Wind  
Wind Speed 6 mph ()    
Max Wind Speed 10 mph    
Max Gust Speed -    
Visibility 6.7 miles    
Events      
Averages and records for this station are not official NWS values.
T = Trace of Precipitation, MM = Missing Value Source: Averaged Metar Reports

Daily Weather History Graph

Daily Weather History Graph

Search for Another Location

Airport or City:

Astronomy

Jan. 14, 2018 Rise Set
Actual Time 8:01 AM GMT 4:20 PM GMT
Civil Twilight 7:22 AM GMT 4:59 PM GMT
Nautical Twilight 6:40 AM GMT 5:41 PM GMT
Astronomical Twilight 6:00 AM GMT 6:21 PM GMT
Moon 5:41 AM GMT (1/14) 2:28 PM GMT (1/14)
Length of Visible Light 9h 36m
Length of Day
8h 19m
Waning Crescent, 6% of the Moon is Illuminated
Jan 14
Waning Crescent
Jan 17
New
Jan 24
First Quarter
Jan 31
Full
Feb 7
Last Quarter

Hourly Weather History & Observations

Time (GMT) Temp. Windchill Dew Point Humidity Pressure Visibility Wind Dir Wind Speed Gust Speed Precip Events Conditions
12:00 AM 40 °F - 34 °F 73% 30.10 in 7 mi East 9.2 mph - -   Overcast
12:20 AM 41.0 °F 35.2 °F 33.8 °F 76% 30.09 in 6.2 mi East 9.2 mph - N/A   Overcast
12:50 AM 41.0 °F 35.8 °F 33.8 °F 76% 30.09 in 6.2 mi East 8.1 mph - N/A   Overcast
1:20 AM 41.0 °F 36.4 °F 33.8 °F 76% 30.09 in 6.2 mi ENE 6.9 mph - N/A   Overcast
1:50 AM 39.2 °F 34.2 °F 33.8 °F 81% 30.09 in 6.2 mi ENE 6.9 mph - N/A   Overcast
2:00 AM 40 °F - 33 °F 69% 30.10 in 7 mi ENE 6.9 mph - -   Overcast
2:20 AM 39.2 °F 33.6 °F 33.8 °F 81% 30.09 in 6.2 mi East 8.1 mph - N/A   Overcast
2:50 AM 39.2 °F 35.9 °F 33.8 °F 81% 30.09 in 6.2 mi East 4.6 mph - N/A   Overcast
3:00 AM 40 °F - 33 °F 69% 30.11 in 7 mi ENE 3.5 mph - -   Overcast
3:20 AM 39.2 °F 35.9 °F 33.8 °F 81% 30.09 in 5.6 mi ENE 4.6 mph - N/A   Overcast
3:50 AM 39.2 °F 34.2 °F 33.8 °F 81% 30.09 in 5.6 mi ENE 6.9 mph - N/A   Overcast
4:00 AM 40 °F - 34 °F 70% 30.10 in 6 mi East 6.9 mph - -   Overcast
4:20 AM 39.2 °F 34.2 °F 33.8 °F 81% 30.09 in 5.6 mi East 6.9 mph - N/A   Overcast
4:50 AM 39.2 °F 35.0 °F 33.8 °F 81% 30.09 in 5.6 mi East 5.8 mph - N/A   Overcast
5:00 AM 40 °F - 33 °F 68% 30.10 in 7 mi East 6.9 mph - -   Overcast
5:20 AM 39.2 °F 37.0 °F 33.8 °F 81% 30.09 in 6.2 mi ENE 3.5 mph - N/A   Overcast
5:50 AM 39.2 °F 37.0 °F 33.8 °F 81% 30.09 in 6.2 mi ENE 3.5 mph - N/A   Overcast
6:00 AM 40 °F - 33 °F 69% 30.09 in 6 mi ENE 3.5 mph - -  
6:20 AM 39.2 °F 37.0 °F 33.8 °F 81% 30.09 in 5.6 mi Variable 3.5 mph - N/A   Overcast
6:50 AM 41.0 °F 39.0 °F 33.8 °F 76% 30.09 in 5.6 mi Variable 3.5 mph - N/A   Overcast
7:20 AM 41.0 °F 38.0 °F 33.8 °F 76% 30.06 in 6.2 mi East 4.6 mph - N/A   Overcast
7:50 AM 41.0 °F 37.1 °F 33.8 °F 76% 30.06 in 6.2 mi East 5.8 mph - N/A   Overcast
8:00 AM 41 °F - 33 °F 64% 30.09 in 10 mi East 6.9 mph - -   Overcast
8:20 AM 41.0 °F - 33.8 °F 76% 30.09 in 6.2 mi ENE 2.3 mph - N/A   Overcast
8:50 AM 41.0 °F - 33.8 °F 76% 30.09 in 6.2 mi Variable 2.3 mph - N/A   Overcast
9:00 AM 41 °F - 33 °F 64% 30.10 in 8 mi NNE 2.3 mph - -   Overcast
9:20 AM 41.0 °F - 33.8 °F 76% 30.09 in 6.2 mi North 2.3 mph - N/A   Overcast
9:50 AM 42.8 °F 41.1 °F 33.8 °F 70% 30.09 in 6.2 mi Variable 3.5 mph - N/A   Overcast
10:00 AM 41 °F - 34 °F 67% 30.11 in 7 mi North 3.5 mph - -   Overcast
10:20 AM 41.0 °F - 33.8 °F 76% 30.09 in 6.2 mi Variable 2.3 mph - N/A   Overcast
10:50 AM 42.8 °F - 33.8 °F 70% 30.09 in 6.2 mi Variable 2.3 mph - N/A   Overcast
11:00 AM 42 °F - 34 °F 64% 30.11 in 7 mi North 2.3 mph - -   Overcast
11:20 AM 42.8 °F 41.1 °F 33.8 °F 70% 30.09 in 6.2 mi North 3.5 mph - N/A   Overcast
11:50 AM 42.8 °F 41.1 °F 33.8 °F 70% 30.09 in 6.2 mi Variable 3.5 mph - N/A   Overcast
12:00 PM 43 °F - 34 °F 61% 30.09 in 8 mi NNW 3.5 mph - -   Overcast
12:20 PM 42.8 °F - 33.8 °F 70% 30.06 in 6.2 mi Variable 2.3 mph - N/A   Overcast
12:50 PM 42.8 °F - 33.8 °F 70% 30.06 in 6.2 mi Variable 2.3 mph - N/A   Overcast
1:00 PM 43 °F - 33 °F 58% 30.08 in 8 mi North 2.3 mph - -   Overcast
1:20 PM 42.8 °F - 33.8 °F 70% 30.04 in 6.2 mi Variable 2.3 mph - N/A   Overcast
1:50 PM 42.8 °F 41.1 °F 32.0 °F 66% 30.06 in 6.2 mi Variable 3.5 mph - N/A   Overcast
2:00 PM 43 °F - 33 °F 59% 30.06 in 10 mi SW 2.3 mph - -   Overcast
2:20 PM 42.8 °F 41.1 °F 32.0 °F 66% 30.04 in 6.2 mi Variable 3.5 mph - N/A   Overcast
2:50 PM 42.8 °F - 32.0 °F 66% 30.04 in 6.2 mi Variable 2.3 mph - N/A   Overcast
3:00 PM 43 °F - 33 °F 58% 30.05 in 12 mi SE 3.5 mph - -   Overcast
3:20 PM 42.8 °F 39.3 °F 32.0 °F 66% 30.04 in 6.2 mi South 5.8 mph - N/A   Mostly Cloudy
3:50 PM 42.8 °F 38.6 °F 32.0 °F 66% 30.04 in 6.2 mi SW 6.9 mph - N/A   Mostly Cloudy
4:00 PM 43 °F - 33 °F 57% 30.04 in 9 mi WSW 6.9 mph - -   Mostly Cloudy
4:20 PM 42.8 °F 38.0 °F 32.0 °F 66% 30.04 in 6.2 mi WSW 8.1 mph - N/A   Mostly Cloudy
4:50 PM 41.0 °F 36.4 °F 32.0 °F 70% 30.04 in 6.2 mi SW 6.9 mph - N/A   Overcast
5:20 PM 41.0 °F 36.4 °F 32.0 °F 70% 30.01 in 6.2 mi SSW 6.9 mph - N/A   Overcast
5:50 PM 41.0 °F 35.8 °F 32.0 °F 70% 30.04 in 6.2 mi WSW 8.1 mph - N/A   Overcast
6:00 PM 42 °F - 33 °F 61% 30.04 in 9 mi WSW 6.9 mph - -   Overcast
6:20 PM 41.0 °F 35.2 °F 32.0 °F 70% 30.04 in 6.2 mi WSW 9.2 mph - N/A   Overcast
6:50 PM 41.0 °F 35.8 °F 32.0 °F 70% 30.04 in 6.2 mi WSW 8.1 mph - N/A   Overcast
7:00 PM 41 °F - 33 °F 64% 30.04 in 10 mi SW 8.1 mph - -   Overcast
7:20 PM 41.0 °F 34.7 °F 33.8 °F 76% 30.04 in 6.2 mi WSW 10.4 mph - N/A   Overcast
7:50 PM 41.0 °F 35.2 °F 33.8 °F 76% 30.04 in 6.2 mi SW 9.2 mph - N/A   Overcast
8:20 PM 41.0 °F 35.2 °F 33.8 °F 76% 30.01 in 6.2 mi WSW 9.2 mph - N/A   Overcast
8:50 PM 41.0 °F 35.8 °F 33.8 °F 76% 30.01 in 6.2 mi SW 8.1 mph - N/A   Scattered Clouds
9:00 PM 40 °F - 33 °F 68% 30.01 in 7 mi SW 9.2 mph - -   Partly Cloudy
9:20 PM 39.2 °F 33.6 °F 33.8 °F 81% 30.01 in 6.2 mi SSW 8.1 mph - N/A   Unknown
9:50 PM 39.2 °F 33.0 °F 33.8 °F 81% 29.98 in 6.2 mi SW 9.2 mph - N/A   Mostly Cloudy
10:20 PM 41.0 °F 35.8 °F 33.8 °F 76% 29.98 in 6.2 mi SW 8.1 mph - N/A   Overcast
10:50 PM 41.0 °F 36.4 °F 33.8 °F 76% 29.95 in 6.2 mi South 6.9 mph - N/A   Overcast
11:00 PM 41 °F - 34 °F 68% 29.96 in 7 mi South 6.9 mph - -   Overcast
11:20 PM 41.0 °F 35.8 °F 33.8 °F 76% 29.92 in 6.2 mi South 8.1 mph - N/A   Overcast
11:50 PM 41.0 °F 35.2 °F 33.8 °F 76% 29.92 in 6.2 mi South 9.2 mph - N/A   Scattered Clouds